sat.trackr.live / text

‹ back to catalog

STARLINK-4162

NORAD 53288 · 2022-086AY

PAYLOAD ACTIVE UNKNOWN

§ Identity

Operator
Country
US
Launch date
2022-07-24
Launch site
AFETR
Launch vehicle
Mass (kg)
RCS (m²)

Purposes: comms

External: N2YO · Heavens-Above · Gunter

§ Orbital elements

Epoch: 2026-09-20T00:45:19.592064Z

Period
93.79 min
Inclination
53.1608°
Eccentricity
0.0001024
Mean motion
15.35395964 rev/d
Perigee alt
459.0 km
Apogee alt
460.4 km
Semi-major
6,837.9 km
B*
2.1357e-5
RAAN
15.8139°
Arg perigee
86.9359°
Mean anomaly
273.1761°
Rev number
23,074

§ Raw data

STARLINK-41621 53288U 22086AY  26263.03147676  .00000365  00000+0  21357-4 0  99922 53288  53.1608  15.8139 0001024  86.9359 273.1761 15.35395964230748

JSON: /api/v1/satellites/53288 · /tle

For live sub-satellite position, see the globe view (requires WebGL).

§ Visibility from observer

Set your observer location to see the next 7 days of passes ≥ 10°. The values pass through the URL so the page stays shareable.

No JS? Fill the form by hand. The geolocation button needs JavaScript.